Temp
3 3 2 2 2 2 2 1 2 2 2 2 2 2 2 2 2 2 2 2 1 1
3 3 2 2 2 2 2 2 2 2 1 1 1 1 1 1 1 1 1 1 1 1
3 2 2 2 2 2 1 1 1 1 0 0 0 0 0 0 0 -0 -0 -1 -1 -0
2 2 1 1 0 0 -0 -0 -0 -1 -1 -1 -1 -2 -2 -2 -2 -2 -1 -1 -3 -3
1 0 0 0 -0 -0 -1 -1 -1 -1 -2 -2 -3 -3 -4 -4 -5 -5 -5 -5 -5 -6
0 0 -0 -1 -1 -1 -1 -2 -2 -3 -3 -4 -4 -5 -5 -6 -7 -7 -8 -8 -7 -7
-0 -0 -0 -1 -1 -1 -1 -2 -2 -3 -4 -5 -6 -6 -8 -8 -9 -9 -9 -9 -9 -9
-0 -1 -1 -1 -0 -1 -1 -1 -2 -3 -4 -5 -6 -8 -9 -10 -10 -10 -10 -10 -10 -10
-1 -1 -1 -0 -0 -1 -2 -2 -3 -4 -5 -6 -8 -10 -11 -10 -11 -12 -12 -12 -12 -12
-1 -1 -1 -1 -1 -2 -3 -4 -5 -6 -7 -8 -9 -11 -12 -12 -12 -13 -13 -13 -13 -13
-2 -2 -2 -2 -3 -4 -5 -6 -6 -7 -9 -10 -11 -12 -13 -13 -13 -14 -14 -14 -14 -14
-3 -3 -3 -3 -4 -5 -6 -7 -8 -10 -11 -12 -11 -12 -14 -14 -14 -14 -14 -14 -14 -14
-4 -4 -4 -5 -6 -7 -8 -10 -11 -11 -12 -13 -13 -13 -15 -14 -14 -14 -14 -14 -14 -13
-5 -5 -5 -6 -8 -9 -10 -11 -12 -13 -13 -13 -13 -14 -16 -14 -13 -13 -13 -13 -12 -12
Height
855 856 857 858 859 860 859 861 861 861 860 860 861 860 859 857 851 851 850 849 849 847
857 858 858 859 860 860 862 863 862 862 862 862 859 857 857 854 850 849 847 845 844 843
858 859 860 860 861 862 864 864 864 863 861 860 857 856 853 850 847 844 841 839 839 838
859 860 860 861 863 863 863 862 862 860 859 856 853 850 848 845 842 840 837 836 834 832
858 859 860 860 861 861 860 859 858 855 853 850 847 845 841 838 836 835 833 831 829 826
857 858 857 857 857 856 855 854 852 850 848 845 843 839 837 835 833 831 829 827 824 822
854 854 854 853 853 852 851 849 847 845 843 840 838 836 834 832 829 827 824 822 820 817
850 851 850 850 849 848 847 845 843 841 839 837 835 834 831 828 825 822 818 815 813 811
846 846 846 845 844 844 842 841 839 837 835 832 831 829 828 826 821 817 813 808 805 803
841 841 841 841 840 839 838 836 834 832 830 828 826 824 823 820 816 811 807 804 800 796
836 836 836 835 835 835 833 832 830 828 826 823 821 819 817 814 810 805 802 799 795 791
831 831 830 830 830 830 829 827 825 823 821 818 815 813 811 809 804 799 796 793 789 785
827 826 825 826 826 825 824 822 820 818 817 815 811 808 805 804 799 793 789 786 781 778
821 821 821 821 821 821 820 818 815 813 810 808 806 802 799 798 794 788 781 777 772 768
Wind_Speed
19 20 20 19 18 18 18 17 17 17 18 19 18 19 19 20 20 19 19 19 18 18
16 16 16 15 14 15 14 15 15 16 16 17 19 21 22 23 23 22 23 23 22 22
12 12 12 11 11 11 10 11 13 15 17 19 21 23 24 27 28 29 29 27 27 27
9 8 8 8 8 9 10 11 13 16 19 22 24 25 26 27 28 28 30 32 31 33
7 5 3 4 7 9 11 13 16 20 24 26 28 29 30 30 29 30 32 33 34 32
6 3 1 5 9 13 16 18 21 24 26 28 29 30 29 27 29 28 27 27 26 28
9 5 4 7 11 15 18 21 24 26 28 29 30 28 25 28 28 29 27 27 24 24
10 7 6 8 13 18 21 23 26 28 29 30 29 21 25 26 26 27 28 27 25 24
13 10 10 12 16 20 22 24 26 28 29 30 28 25 21 23 27 27 27 28 27 26
15 13 12 14 17 20 22 24 26 27 29 30 31 25 24 25 26 27 26 26 27 28
16 14 13 15 17 19 22 24 26 28 27 30 31 27 24 25 26 25 25 25 26 27
16 14 14 16 18 20 22 24 26 26 28 29 32 29 23 24 25 25 26 26 26 27
14 14 15 17 19 20 21 24 25 28 28 28 30 25 22 22 24 26 27 27 27 26
14 15 17 18 18 19 21 24 27 29 29 28 26 28 21 21 25 26 28 27 28 30
Wind_Direction
90 83 78 71 65 60 54 45 38 34 30 25 18 12 8 4 7 1 357 353 348 338
89 82 74 68 58 48 38 28 21 16 14 8 3 359 354 353 352 346 343 339 335 328
94 86 75 62 51 39 26 13 7 2 359 356 354 350 348 346 344 340 338 335 328 322
107 95 79 60 44 26 10 2 356 353 350 349 347 346 344 343 340 335 330 328 326 321
145 121 78 41 18 5 357 351 349 348 346 346 345 344 343 340 337 333 327 323 320 315
188 204 332 359 355 351 348 346 345 345 344 343 341 341 341 338 331 324 316 311 307 306
213 235 301 333 339 340 339 337 338 339 339 339 338 340 336 328 322 317 311 307 303 299
222 240 277 311 324 328 328 329 331 331 332 333 336 333 327 324 319 314 310 307 305 301
226 244 278 303 314 317 320 323 326 327 328 329 330 328 326 321 314 309 306 305 305 302
233 252 277 298 306 312 318 321 323 324 325 325 326 329 322 318 311 306 303 301 301 300
236 255 279 296 305 312 315 318 320 320 321 323 324 324 320 317 309 302 300 298 296 296
240 262 284 298 305 310 312 314 316 318 320 320 321 326 318 315 309 303 300 299 295 291
251 274 290 298 301 306 310 312 313 314 316 317 319 327 317 313 307 302 301 297 294 295
263 281 289 293 299 304 308 309 309 311 315 318 324 328 315 313 308 302 297 296 299 295